When you browse on this site, cookies collect data to enhance your experience and personalize the content and advertising you see.
Visit our Privacy Policy to learn more. By continuing to use the site, you agree to this use of cookies and data.
  • In United Kingdom
  • List of Countries
  • For 7 days
  • Water Temperature
  • Satellite Maps
  • Weather Map
  • Weather Widgets
  • user-avatar
    Login

    Hourly Weather Lubango

    Today, 19 December, Wednesday

    Time Temperature Precipitation Wind Pressure Humidity
    00:00 +15°C° 0 mm 1 mps 609 mmHg 74%
    01:00 +14°C° 0 mm 1 mps 609 mmHg 80%
    02:00 +13°C° 0 mm 1 mps 609 mmHg 81%
    03:00 +13°C° 0 mm 1 mps 608 mmHg 82%
    04:00 +12°C° 0 mm 0 mps 608 mmHg 83%
    05:00 +13°C° 0 mm 0 mps 609 mmHg 76%
    06:00 +14°C° 0 mm 0 mps 609 mmHg 69%
    07:00 +16°C° 0 mm 0 mps 610 mmHg 63%
    08:00 +20°C° 0 mm 1 mps 611 mmHg 53%
    09:00 +23°C° 0 mm 1 mps 612 mmHg 44%
    10:00 +25°C° 0 mm 2 mps 612 mmHg 34%
    11:00 +27°C° 0 mm 2 mps 612 mmHg 32%
    12:00 +28°C° 0 mm 2 mps 612 mmHg 29%
    13:00 +29°C° 0 mm 3 mps 612 mmHg 27%
    14:00 +28°C° 0 mm 3 mps 611 mmHg 29%
    15:00 +28°C° 0 mm 3 mps 611 mmHg 31%
    16:00 +27°C° 0 mm 4 mps 610 mmHg 33%
    17:00 +25°C° 0 mm 3 mps 610 mmHg 39%
    18:00 +22°C° 0 mm 3 mps 609 mmHg 45%
    19:00 +19°C° 0 mm 3 mps 609 mmHg 51%
    20:00 +18°C° 0 mm 2 mps 609 mmHg 57%
    21:00 +17°C° 0 mm 2 mps 609 mmHg 63%
    22:00 +16°C° 0 mm 1 mps 609 mmHg 69%
    23:00 +15°C° 0 mm 1 mps 609 mmHg 71%

    Tomorrow, 20 December, Thursday

    Time Temperature Precipitation Wind Pressure Humidity
    00:00 +15°C° 0 mm 1 mps 608 mmHg 73%
    01:00 +14°C° 0 mm 1 mps 608 mmHg 74%
    02:00 +15°C° 0 mm 1 mps 608 mmHg 72%
    03:00 +15°C° 0 mm 1 mps 608 mmHg 69%
    04:00 +16°C° 0 mm 1 mps 608 mmHg 67%
    05:00 +16°C° 0 mm 1 mps 609 mmHg 65%
    06:00 +18°C° 0 mm 1 mps 609 mmHg 62%
    07:00 +18°C° 0 mm 1 mps 610 mmHg 60%
    08:00 +21°C° 0 mm 1 mps 611 mmHg 49%
    09:00 +24°C° 0 mm 2 mps 612 mmHg 38%
    10:00 +26°C° 0 mm 2 mps 613 mmHg 27%
    11:00 +27°C° 0 mm 3 mps 613 mmHg 26%
    12:00 +28°C° 0 mm 3 mps 612 mmHg 25%
    13:00 +29°C° 0 mm 3 mps 612 mmHg 24%
    14:00 +28°C° 0 mm 3 mps 611 mmHg 26%
    15:00 +28°C° 0 mm 3 mps 611 mmHg 28%
    16:00 +27°C° 0 mm 3 mps 610 mmHg 30%
    17:00 +24°C° 0 mm 3 mps 610 mmHg 39%
    18:00 +21°C° 0 mm 3 mps 609 mmHg 47%
    19:00 +18°C° 0 mm 3 mps 609 mmHg 56%
    20:00 +17°C° 0 mm 2 mps 609 mmHg 63%
    21:00 +15°C° 0 mm 2 mps 609 mmHg 69%
    22:00 +14°C° 0 mm 1 mps 609 mmHg 76%
    23:00 +14°C° 0 mm 1 mps 609 mmHg 78%

    Day after tomorrow, 21 December, Friday

    Time Temperature Precipitation Wind Pressure Humidity
    00:00 +13°C° 0 mm 1 mps 608 mmHg 80%
    01:00 +13°C° 0 mm 1 mps 608 mmHg 82%
    02:00 +12°C° 0 mm 1 mps 608 mmHg 82%
    03:00 +12°C° 0 mm 1 mps 607 mmHg 81%
    04:00 +12°C° 0 mm 1 mps 607 mmHg 81%
    05:00 +13°C° 0 mm 1 mps 608 mmHg 73%
    06:00 +14°C° 0 mm 0 mps 609 mmHg 65%
    07:00 +16°C° 0 mm 0 mps 610 mmHg 57%
    08:00 +21°C° 0 mm 1 mps 611 mmHg 45%
    09:00 +24°C° 0 mm 2 mps 612 mmHg 34%
    10:00 +27°C° 0 mm 2 mps 613 mmHg 22%
    11:00 +28°C° 0 mm 3 mps 613 mmHg 21%
    12:00 +30°C° 0 mm 3 mps 613 mmHg 19%
    13:00 +31°C° 0 mm 3 mps 613 mmHg 17%
    14:00 +30°C° 0 mm 4 mps 612 mmHg 19%
    15:00 +29°C° 0 mm 4 mps 611 mmHg 22%
    16:00 +29°C° 0 mm 5 mps 610 mmHg 24%
    17:00 +26°C° 0 mm 4 mps 609 mmHg 34%
    18:00 +21°C° 0 mm 3 mps 609 mmHg 45%
    19:00 +18°C° 0 mm 3 mps 608 mmHg 55%
    20:00 +17°C° 0 mm 2 mps 608 mmHg 61%
    21:00 +16°C° 0 mm 2 mps 608 mmHg 68%
    22:00 +14°C° 0 mm 1 mps 608 mmHg 75%
    23:00 +14°C° 0 mm 1 mps 608 mmHg 77%

    22 December, Saturday

    Time Temperature Precipitation Wind Pressure Humidity
    00:00 +13°C° 0 mm 1 mps 607 mmHg 79%
    01:00 +13°C° 0 mm 1 mps 607 mmHg 81%
    02:00 +12°C° 0 mm 1 mps 607 mmHg 82%
    03:00 +12°C° 0 mm 1 mps 607 mmHg 84%
    04:00 +12°C° 0 mm 1 mps 607 mmHg 85%
    05:00 +13°C° 0 mm 1 mps 607 mmHg 77%
    06:00 +15°C° 0 mm 1 mps 608 mmHg 70%
    07:00 +16°C° 0 mm 1 mps 609 mmHg 62%
    08:00 +20°C° 0 mm 1 mps 610 mmHg 50%
    09:00 +23°C° 0 mm 2 mps 611 mmHg 38%
    10:00 +26°C° 0 mm 2 mps 612 mmHg 25%
    11:00 +27°C° 0 mm 2 mps 612 mmHg 25%
    12:00 +27°C° 0 mm 3 mps 611 mmHg 24%
    13:00 +28°C° 0 mm 3 mps 611 mmHg 23%
    14:00 +28°C° 0 mm 3 mps 610 mmHg 24%
    15:00 +28°C° 0 mm 3 mps 610 mmHg 25%
    16:00 +27°C° 0 mm 4 mps 609 mmHg 26%
    17:00 +25°C° 0 mm 3 mps 609 mmHg 34%
    18:00 +21°C° 0 mm 3 mps 608 mmHg 42%
    19:00 +19°C° 0 mm 2 mps 608 mmHg 50%
    20:00 +18°C° 0 mm 2 mps 608 mmHg 55%
    21:00 +16°C° 0 mm 2 mps 608 mmHg 61%
    22:00 +15°C° 0 mm 1 mps 608 mmHg 67%
    23:00 +15°C° 0 mm 1 mps 607 mmHg 69%

    23 December, Sunday

    Time Temperature Precipitation Wind Pressure Humidity
    00:00 +14°C° 0 mm 1 mps 607 mmHg 72%
    01:00 +13°C° 0 mm 1 mps 606 mmHg 75%
    02:00 +13°C° 0.1 mm 1 mps 606 mmHg 76%
    03:00 +13°C° 0.1 mm 1 mps 606 mmHg 76%
    04:00 +13°C° 0.1 mm 1 mps 606 mmHg 76%
    05:00 +14°C° 0 mm 1 mps 607 mmHg 71%
    06:00 +15°C° 0 mm 1 mps 608 mmHg 66%
    07:00 +18°C° 0 mm 1 mps 609 mmHg 61%
    08:00 +21°C° 0 mm 1 mps 610 mmHg 51%
    09:00 +24°C° 0 mm 1 mps 611 mmHg 41%
    10:00 +27°C° 0 mm 1 mps 612 mmHg 30%
    11:00 +28°C° 0 mm 2 mps 611 mmHg 28%
    12:00 +29°C° 0 mm 2 mps 611 mmHg 26%
    13:00 +30°C° 0 mm 2 mps 611 mmHg 24%
    14:00 +29°C° 0 mm 3 mps 610 mmHg 28%
    15:00 +28°C° 0 mm 3 mps 609 mmHg 31%
    16:00 +26°C° 0 mm 4 mps 608 mmHg 34%
    17:00 +24°C° 0 mm 3 mps 608 mmHg 42%
    18:00 +21°C° 0 mm 3 mps 608 mmHg 51%
    19:00 +18°C° 0 mm 2 mps 607 mmHg 59%
    20:00 +18°C° 0 mm 2 mps 608 mmHg 63%
    21:00 +17°C° 0 mm 2 mps 608 mmHg 68%
    22:00 +16°C° 0 mm 1 mps 608 mmHg 72%
    23:00 +15°C° 0 mm 1 mps 608 mmHg 75%

    24 December, Monday

    Time Temperature Precipitation Wind Pressure Humidity
    00:00 +14°C° 0 mm 1 mps 607 mmHg 77%
    01:00 +13°C° 0 mm 0 mps 607 mmHg 80%
    02:00 +13°C° 0 mm 0 mps 607 mmHg 80%
    03:00 +13°C° 0 mm 0 mps 606 mmHg 81%
    04:00 +13°C° 0 mm 1 mps 606 mmHg 81%
    05:00 +15°C° 0 mm 1 mps 607 mmHg 75%
    06:00 +16°C° 0 mm 1 mps 608 mmHg 68%
    07:00 +18°C° 0 mm 1 mps 609 mmHg 61%
    08:00 +21°C° 0 mm 1 mps 610 mmHg 50%
    09:00 +24°C° 0 mm 1 mps 611 mmHg 40%
    10:00 +27°C° 0 mm 1 mps 612 mmHg 30%
    11:00 +28°C° 0 mm 2 mps 612 mmHg 28%
    12:00 +29°C° 0 mm 2 mps 611 mmHg 27%
    13:00 +30°C° 0 mm 3 mps 611 mmHg 26%
    14:00 +28°C° 0 mm 3 mps 610 mmHg 29%
    15:00 +27°C° 0 mm 4 mps 609 mmHg 32%
    16:00 +25°C° 0 mm 4 mps 609 mmHg 35%
    17:00 +22°C° 0 mm 3 mps 608 mmHg 41%
    18:00 +20°C° 0 mm 3 mps 608 mmHg 46%
    19:00 +19°C° 0 mm 3 mps 608 mmHg 52%
    20:00 +17°C° 0 mm 2 mps 608 mmHg 57%
    21:00 +16°C° 0 mm 2 mps 608 mmHg 63%
    22:00 +15°C° 0 mm 1 mps 608 mmHg 68%
    23:00 +15°C° 0 mm 1 mps 608 mmHg 69%
    Show more